Cody, WY

2:32 AM MDT on August 22, 2017 (GMT -0600)
Yellowstone Regional

Weather History for KCOD - December, 2012

Change the Weather History Date:

Friday, December 21, 2012

  Actual Average Record
Temperature  
Mean Temperature 35 °F -  
Max Temperature 46 °F 34 °F 58 °F (1950)
Min Temperature 24 °F 12 °F -34 °F (1990)
Degree Days  
Heating Degree Days 30    
Moisture  
Dew Point 9 °F    
Average Humidity 36    
Maximum Humidity 59    
Minimum Humidity 23    
Precipitation  
Precipitation 0.00 in - - ()
Sea Level Pressure  
Sea Level Pressure 29.97 in    
Wind  
Wind Speed 10 mph (SSW)    
Max Wind Speed 17 mph    
Max Gust Speed 20 mph    
Visibility 10 miles    
Events      
Averages and records for this station are not official NWS values.
T = Trace of Precipitation, MM = Missing Value Source: NWS Daily Summary

Daily Weather History Graph

Daily Weather History Graph

Search for Another Location

Airport or City:

Trip Planner

Search our weather history database for the weather conditions in past years. The results will help you decide how hot, cold, wet, or windy it might be!

Date:

Astronomy

Dec. 21, 2012 Rise Set
Actual Time 7:49 AM MST 4:39 PM MST
Civil Twilight 7:16 AM MST 5:12 PM MST
Nautical Twilight 6:39 AM MST 5:49 PM MST
Astronomical Twilight 6:03 AM MST 6:25 PM MST
Moon 12:36 PM MST (12/21) 1:29 AM MST (12/21)
Length of Visible Light 9h 56m
Length of Day
8h 49m
Waxing Gibbous, 65% of the Moon is Illuminated
Dec 21
Waxing Gibbous
Dec 28
Full
Jan 4
Last Quarter
Jan 11
New
Jan 18
First Quarter

Hourly Weather History & Observations

Time (MST) Temp. Windchill Dew Point Humidity Pressure Visibility Wind Dir Wind Speed Gust Speed Precip Events Conditions
12:15 AM 32.0 °F 24.2 °F 8.6 °F 38% 30.01 in 10.0 mi SSW 9.2 mph 17.3 mph N/A   Clear
12:35 AM 33.8 °F 25.8 °F 8.6 °F 35% 30.02 in 10.0 mi SSW 10.4 mph - N/A   Clear
12:55 AM 35.6 °F 27.1 °F 8.6 °F 33% 30.01 in 10.0 mi SW 12.7 mph - N/A   Clear
1:15 AM 33.8 °F 24.3 °F 8.6 °F 35% 30.02 in 10.0 mi South 13.8 mph - N/A   Clear
1:36 AM 37.4 °F 30.3 °F 6.8 °F 28% 30.02 in 10.0 mi SSW 10.4 mph 19.6 mph N/A   Clear
1:55 AM 41.0 °F 35.2 °F 8.6 °F 26% 30.02 in 10.0 mi NW 9.2 mph 18.4 mph N/A   Clear
2:15 AM 41.0 °F 36.4 °F 5.0 °F 23% 30.02 in 10.0 mi SW 6.9 mph 16.1 mph N/A   Clear
2:35 AM 39.2 °F 34.2 °F 6.8 °F 26% 30.02 in 10.0 mi SSW 6.9 mph 19.6 mph N/A   Clear
2:55 AM 35.6 °F 29.9 °F 5.0 °F 28% 30.01 in 10.0 mi West 6.9 mph - N/A   Clear
3:15 AM 35.6 °F 27.5 °F 3.2 °F 26% 30.00 in 10.0 mi West 11.5 mph - N/A   Clear
3:35 AM 37.4 °F 31.4 °F 5.0 °F 26% 30.00 in 10.0 mi West 8.1 mph - N/A   Clear
3:55 AM 37.4 °F 28.9 °F 3.2 °F 24% 29.99 in 10.0 mi SW 13.8 mph - N/A   Clear
4:15 AM 37.4 °F 29.8 °F 6.8 °F 28% 30.00 in 10.0 mi WSW 11.5 mph 18.4 mph N/A   Clear
4:35 AM 35.6 °F 27.5 °F 6.8 °F 30% 30.00 in 10.0 mi WSW 11.5 mph - N/A   Clear
4:55 AM 33.8 °F 25.8 °F 6.8 °F 32% 29.99 in 10.0 mi WSW 10.4 mph - N/A   Clear
5:15 AM 33.8 °F 24.8 °F 8.6 °F 35% 29.99 in 10.0 mi SW 12.7 mph - N/A   Clear
5:35 AM 33.8 °F 25.3 °F 6.8 °F 32% 29.99 in 10.0 mi SW 11.5 mph - N/A   Clear
5:55 AM 30.2 °F 20.2 °F 8.6 °F 40% 29.99 in 10.0 mi SW 12.7 mph - N/A   Clear
6:15 AM 28.4 °F 18.5 °F 8.6 °F 43% 30.00 in 10.0 mi SW 11.5 mph - N/A   Clear
6:35 AM 33.8 °F 25.3 °F 8.6 °F 35% 29.99 in 10.0 mi WSW 11.5 mph 18.4 mph N/A   Clear
6:55 AM 35.6 °F 28.0 °F 5.0 °F 28% 30.00 in 10.0 mi WSW 10.4 mph - N/A   Clear
7:15 AM 35.6 °F 28.0 °F 6.8 °F 30% 30.00 in 10.0 mi SW 10.4 mph - N/A   Clear
7:35 AM 30.2 °F 20.8 °F 8.6 °F 40% 30.00 in 10.0 mi SW 11.5 mph - N/A   Clear
7:55 AM 30.2 °F 20.8 °F 8.6 °F 40% 30.00 in 10.0 mi SW 11.5 mph 16.1 mph N/A   Clear
8:15 AM 28.4 °F 16.2 °F 8.6 °F 43% 30.00 in 10.0 mi SSW 17.3 mph - N/A   Clear
8:35 AM 30.2 °F 19.8 °F 8.6 °F 40% 30.00 in 10.0 mi SSW 13.8 mph - N/A   Clear
8:55 AM 30.2 °F 19.8 °F 8.6 °F 40% 30.00 in 10.0 mi SSW 13.8 mph - N/A   Clear
9:35 AM 32.0 °F 21.2 °F 8.6 °F 38% 30.01 in 10.0 mi SSW 16.1 mph - N/A   Clear
9:55 AM 32.0 °F 21.2 °F 8.6 °F 38% 30.01 in 10.0 mi SSW 16.1 mph - N/A   Clear
10:15 AM 33.8 °F 25.3 °F 10.4 °F 38% 30.01 in 10.0 mi SW 11.5 mph 18.4 mph N/A   Clear
10:35 AM 33.8 °F 24.3 °F 10.4 °F 38% 30.01 in 10.0 mi SSW 13.8 mph - N/A   Clear
11:15 AM 37.4 °F 28.5 °F 10.4 °F 33% 29.99 in 10.0 mi South 15.0 mph - N/A   Clear
11:35 AM 39.2 °F 32.0 °F 10.4 °F 31% 29.98 in 10.0 mi SSW 11.5 mph - N/A   Clear
12:15 PM 42.8 °F 38.0 °F 10.4 °F 27% 29.96 in 10.0 mi South 8.1 mph - N/A   Clear
12:35 PM 44.6 °F 40.2 °F 8.6 °F 23% 29.96 in 10.0 mi South 8.1 mph - N/A   Clear
12:55 PM 44.6 °F 40.7 °F 10.4 °F 25% 29.95 in 10.0 mi South 6.9 mph - N/A   Clear
1:15 PM 46.4 °F 42.9 °F 10.4 °F 23% 29.94 in 10.0 mi SSE 6.9 mph - N/A   Clear
1:35 PM 46.4 °F 41.5 °F 10.4 °F 23% 29.94 in 10.0 mi SE 10.4 mph - N/A   Clear
1:55 PM 44.6 °F 39.2 °F 10.4 °F 25% 29.93 in 10.0 mi SSE 10.4 mph - N/A   Clear
2:55 PM 44.6 °F 39.7 °F 10.4 °F 25% 29.93 in 10.0 mi SSE 9.2 mph - N/A   Clear
3:15 PM 42.8 °F 37.5 °F 10.4 °F 27% 29.93 in 10.0 mi SSE 9.2 mph - N/A   Clear
3:35 PM 42.8 °F 40.1 °F 12.2 °F 29% 29.93 in 10.0 mi East 4.6 mph - N/A   Clear
3:55 PM 37.4 °F 34.9 °F 15.8 °F 41% 29.93 in 10.0 mi NE 3.5 mph - N/A   Clear
4:15 PM 37.4 °F 34.9 °F 15.8 °F 41% 29.93 in 10.0 mi SE 3.5 mph - N/A   Clear
5:15 PM 28.4 °F 20.4 °F 15.8 °F 59% 29.95 in 10.0 mi ENE 8.1 mph - N/A   Clear
5:36 PM 28.4 °F 23.3 °F 14.0 °F 55% 29.95 in 10.0 mi ENE 4.6 mph - N/A   Clear
5:55 PM 28.4 °F 23.3 °F 12.2 °F 51% 29.94 in 10.0 mi South 4.6 mph - N/A   Clear
6:15 PM 26.6 °F - 12.2 °F 55% 29.94 in 10.0 mi Calm Calm - N/A   Clear
6:35 PM 24.8 °F - 10.4 °F 54% 29.94 in 10.0 mi Calm Calm - N/A   Clear
7:15 PM 26.6 °F - 12.2 °F 55% 29.93 in 10.0 mi Calm Calm - N/A   Clear
7:55 PM 30.2 °F 20.2 °F 10.4 °F 44% 29.92 in 10.0 mi SSW 12.7 mph - N/A   Clear
8:15 PM 32.0 °F 23.6 °F 10.4 °F 41% 29.92 in 10.0 mi SW 10.4 mph - N/A   Clear
8:55 PM 28.4 °F - 10.4 °F 47% 29.92 in 10.0 mi Calm Calm - N/A   Clear
9:15 PM 32.0 °F 28.7 °F 10.4 °F 41% 29.92 in 10.0 mi WSW 3.5 mph - N/A   Clear
9:35 PM 32.0 °F 24.8 °F 8.6 °F 38% 29.92 in 10.0 mi SW 8.1 mph - N/A   Clear
9:55 PM 30.2 °F 23.4 °F 10.4 °F 44% 29.92 in 10.0 mi WSW 6.9 mph - N/A   Clear
10:15 PM 30.2 °F 25.4 °F 10.4 °F 44% 29.92 in 10.0 mi West 4.6 mph - N/A   Clear
10:35 PM 24.8 °F - 6.8 °F 46% 29.93 in 10.0 mi Calm Calm - N/A   Clear
10:55 PM 30.2 °F 20.2 °F 10.4 °F 44% 29.93 in 10.0 mi SSW 12.7 mph - N/A   Clear
11:15 PM 28.4 °F 19.7 °F 8.6 °F 43% 29.93 in 10.0 mi South 9.2 mph - N/A   Clear
11:35 PM 28.4 °F 19.1 °F 10.4 °F 47% 29.92 in 10.0 mi SSW 10.4 mph - N/A   Clear
11:55 PM 28.4 °F 22.2 °F 8.6 °F 43% 29.93 in 10.0 mi WSW 5.8 mph - N/A   Clear